Terminal Aerodrome Forecast
Issued by NWS

Home | Current Version | Previous Version | Graphics & Text | Print | Product List | Glossary On
Versions: 1 2 3 4 5 6 7 8 9 10 11 12 13 14
350
FTUS45 KGGW 051011 AAB
TAFSDY
TAF AMD
KSDY 051011Z 0510/0606 33007KT P6SM SCT120
     FM051800 24010KT P6SM SCT250
     FM060300 24005KT P6SM SCT250
      AMD LTD TO CLD VIS AND WIND=

USA.gov is the U.S. government's official web portal to all federal, state and local government web resources and services.